Seaglider Talisker on mission MASSMO 3 Piloting

  • Public vehicle
  • Serial Number sg156
  • Operated by SAMS on the MASSMO project

SAMS acquired its first Seaglider - called Talisker by its operating team - in September 2008. Talisker is equipped with: * pressure sensor * unpumped Seabird conductivity and temperature sensors * Seabird oxygen sensor * Aanderaa oxygen optode * Wetlabs ECO triplet (fluorescence, blue and red scattering) *GPS

  • Deployed: 2016/09/15 00:00:00 UTC (1127 days ago)
  • Recovered: 2016/09/30 14:30:00 UTC (1112 days ago)
  • Time at Sea: 15 days
  • Profiles Performed: 342

Near Real-Time Data

 
backscatter_blue
backscatter_red
chlorophyll
density
oxygen
salinity
sound_velocity
temperature

Communication Log

# Updated Depth Speed Plots
1082704 2016-09-30 14:22:28 UTC (1112 days ago)
1082703 2016-09-30 13:33:17 UTC (1112 days ago)
1082702 2016-09-30 12:48:49 UTC (1112 days ago)
1082575 2016-09-30 11:51:27 UTC (1112 days ago)
1082574 2016-09-30 11:06:34 UTC (1112 days ago)
1082573 2016-09-30 10:20:00 UTC (1112 days ago)
1082436 2016-09-30 09:23:24 UTC (1112 days ago)
1082435 2016-09-30 08:36:51 UTC (1112 days ago)
1082434 2016-09-30 07:51:37 UTC (1112 days ago)
1082312 2016-09-30 06:54:22 UTC (1112 days ago)
1082311 2016-09-30 06:08:02 UTC (1112 days ago)
1082310 2016-09-30 05:22:25 UTC (1112 days ago)
1082200 2016-09-30 04:24:59 UTC (1112 days ago)
1082199 2016-09-30 03:38:37 UTC (1112 days ago)
1082198 2016-09-30 02:55:13 UTC (1112 days ago)
1082075 2016-09-30 01:53:48 UTC (1112 days ago)
1082074 2016-09-30 01:02:07 UTC (1112 days ago)
1082073 2016-09-30 00:17:15 UTC (1112 days ago)
1081950 2016-09-29 23:17:31 UTC (1112 days ago)
1081949 2016-09-29 22:31:13 UTC (1112 days ago)